Weather History for Colorado Springs, CO

Change the Weather History Date:

Wednesday, February 20, 2013

  Actual Average Record
Temperature  
Mean Temperature 23 °F 33 °F  
Max Temperature 31 °F 46 °F 71 °F (1935)
Min Temperature 15 °F 20 °F -9 °F (1911)
Degree Days  
Heating Degree Days 42 32  
Month to date heating degree days 662 670  
Since 1 July heating degree days 4015 4313  
Cooling Degree Days 0 0  
Month to date cooling degree days 0 0  
Year to date cooling degree days 0 0  
Moisture  
Dew Point 23 °F    
Average Humidity 67    
Maximum Humidity 92    
Minimum Humidity 42    
Precipitation  
Precipitation 0.65 in 0.01 in 0.65 in (2013)
Month to date precipitation 0.85 0.21  
Year to date precipitation 1.03 0.53  
Snow  
Snow 7.30 in 0.20 in 7.30 in (2013)
Month to date snowfall 9.8 3.5  
Since 1 July snowfall 19.3 22.6  
Snow Depth 0.00 in    
Sea Level Pressure  
Sea Level Pressure 29.66 in    
Wind  
Wind Speed 8 mph (NE)    
Max Wind Speed 22 mph    
Max Gust Speed 29 mph    
Visibility 4 miles    
Events Fog , Snow    
T = Trace of Precipitation, MM = Missing Value Source: NWS Daily Summary

Daily Weather History Graph

Daily Weather History Graph

Search for Another Location

Airport:

Trip Planner

Search our weather history database for the weather conditions in past years. The results will help you decide how hot, cold, wet, or windy it might be!

Date:

Astronomy

Feb. 20, 2013 Rise Set
Actual Time 6:43 AM MST 5:42 PM MST
Civil Twilight 6:16 AM MST 6:09 PM MST
Nautical Twilight 5:45 AM MST 6:40 PM MST
Astronomical Twilight 5:14 AM MST 7:11 PM MST
Moon 1:07 PM MST (2/20) 3:03 AM MST (2/20)
Length of Visible Light 11h 53m
Length of Day
10h 59m
Waxing Gibbous, 76% of the Moon is Illuminated
Feb 20
Waxing Gibbous
Feb 25
Full
Mar 4
Last Quarter
Mar 11
New
Mar 19
First Quarter

Hourly Weather History & Observations

Time (MST) Temp. Windchill Dew Point Humidity Pressure Visibility Wind Dir Wind Speed Gust Speed Precip Events Conditions
12:54 AM 28.0 °F 20.8 °F 10.0 °F 47% 29.82 in 10.0 mi ENE 6.9 mph - N/A   Clear
1:54 AM 25.0 °F 18.1 °F 9.0 °F 51% 29.82 in 10.0 mi ENE 5.8 mph - N/A   Clear
2:54 AM 24.1 °F 16.0 °F 10.9 °F 57% 29.81 in 10.0 mi NNE 6.9 mph - N/A   Clear
3:54 AM 24.1 °F 17.0 °F 12.0 °F 60% 29.81 in 10.0 mi NE 5.8 mph - N/A   Clear
4:54 AM 21.9 °F 14.5 °F 12.0 °F 66% 29.82 in 10.0 mi NNE 5.8 mph - N/A   Clear
5:54 AM 21.9 °F 12.5 °F 12.0 °F 66% 29.82 in 10.0 mi NE 8.1 mph - N/A   Clear
6:54 AM 23.0 °F 15.8 °F 12.9 °F 65% 29.82 in 10.0 mi ENE 5.8 mph - N/A   Clear
7:54 AM 24.1 °F 18.2 °F 14.0 °F 65% 29.82 in 10.0 mi NNE 4.6 mph - N/A   Mostly Cloudy
8:54 AM 26.1 °F 16.8 °F 17.1 °F 69% 29.81 in 10.0 mi ENE 9.2 mph - N/A   Overcast
9:54 AM 27.0 °F 21.6 °F 19.9 °F 75% 29.80 in 10.0 mi ESE 4.6 mph - N/A   Overcast
10:18 AM 26.6 °F 18.2 °F 21.2 °F 80% 29.70 in 10.0 mi East 8.1 mph - N/A   Overcast
10:36 AM 26.6 °F 20.0 °F 23.0 °F 86% 29.70 in 3.0 mi East 5.8 mph - 0.00 in Snow Light Snow
10:54 AM 27.0 °F 21.6 °F 24.1 °F 89% 29.80 in 5.0 mi East 4.6 mph - 0.00 in   Overcast
11:13 AM 26.6 °F 20.0 °F 24.8 °F 93% 29.69 in 2.0 mi East 5.8 mph - N/A   Overcast
11:24 AM 26.6 °F 20.0 °F 24.8 °F 93% 29.69 in 0.5 mi East 5.8 mph - N/A Fog , Snow Light Snow
11:40 AM 26.6 °F 20.0 °F 24.8 °F 93% 29.67 in 1.0 mi East 5.8 mph - 0.00 in Snow Light Snow
11:54 AM 27.0 °F - 25.0 °F 92% 29.76 in 0.8 mi Calm Calm - 0.00 in Snow Light Snow
12:03 PM 28.4 °F - 24.8 °F 86% 29.65 in 0.2 mi Calm Calm - 0.01 in Fog , Snow Snow
12:14 PM 28.4 °F 24.6 °F 24.8 °F 86% 29.64 in 2.0 mi ENE 3.5 mph - 0.01 in Snow Light Snow
12:45 PM 32.0 °F 28.7 °F 26.6 °F 80% 29.61 in 6.0 mi SE 3.5 mph - 0.01 in   Overcast
12:54 PM 31.1 °F 27.7 °F 27.0 °F 85% 29.69 in 6.0 mi ESE 3.5 mph - 0.01 in   Overcast
1:54 PM 30.0 °F 22.4 °F 26.1 °F 85% 29.68 in 1.8 mi East 8.1 mph - 0.00 in Snow Light Snow
1:57 PM 30.2 °F 21.9 °F 26.6 °F 86% 29.58 in 2.0 mi East 9.2 mph - 0.00 in Snow Light Snow
2:23 PM 30.2 °F 21.9 °F 26.6 °F 86% 29.58 in 0.8 mi East 9.2 mph - 0.01 in Snow Light Snow
2:39 PM 30.2 °F 22.6 °F 26.6 °F 86% 29.58 in 3.0 mi East 8.1 mph - 0.01 in Snow Light Snow
2:47 PM 30.2 °F 22.6 °F 26.6 °F 86% 29.58 in 3.0 mi East 8.1 mph - 0.01 in   Overcast
2:54 PM 30.9 °F 23.5 °F 26.1 °F 82% 29.68 in 6.0 mi East 8.1 mph - 0.01 in   Overcast
3:04 PM 30.2 °F 20.2 °F 26.6 °F 86% 29.58 in 6.0 mi East 12.7 mph - 0.00 in Snow Light Snow
3:11 PM 30.2 °F 21.3 °F 26.6 °F 86% 29.58 in 6.0 mi East 10.4 mph - 0.00 in Snow Light Snow
3:23 PM 28.4 °F 18.0 °F 26.6 °F 93% 29.58 in 6.0 mi East 12.7 mph - 0.00 in Snow Light Snow
3:54 PM 28.9 °F 19.2 °F 26.1 °F 89% 29.69 in 5.0 mi East 11.5 mph - 0.00 in Snow Light Snow
4:23 PM 28.4 °F 20.4 °F 24.8 °F 86% 29.57 in 8.0 mi ENE 8.1 mph - 0.00 in   Overcast
4:37 PM 28.4 °F 20.4 °F 24.8 °F 86% 29.57 in 8.0 mi NE 8.1 mph - 0.00 in   Overcast
4:54 PM 28.9 °F 21.9 °F 25.0 °F 85% 29.68 in 5.0 mi NNE 6.9 mph - 0.00 in Snow Light Snow
5:19 PM 28.4 °F 20.4 °F 24.8 °F 86% 29.56 in 1.5 mi NNE 8.1 mph - 0.00 in Snow Light Snow
5:54 PM 28.9 °F 21.9 °F 26.1 °F 89% 29.68 in 1.0 mi North 6.9 mph - 0.03 in Snow Light Snow
6:36 PM 28.4 °F 20.4 °F 26.6 °F 93% 29.57 in 1.0 mi North 8.1 mph - 0.03 in Snow Light Snow
6:40 PM 28.4 °F 20.4 °F 26.6 °F 93% 29.57 in 0.8 mi North 8.1 mph - 0.03 in Snow Light Snow
6:54 PM 28.9 °F 21.1 °F 26.1 °F 89% 29.68 in 0.5 mi NNE 8.1 mph - 0.05 in Fog , Snow Snow
7:02 PM 28.4 °F 20.4 °F 26.6 °F 93% 29.56 in 0.2 mi North 8.1 mph - 0.02 in Fog , Snow Heavy Snow
7:17 PM 28.4 °F 18.0 °F 26.6 °F 93% 29.57 in 0.2 mi North 12.7 mph - 0.07 in Fog , Snow Heavy Snow
7:54 PM 28.0 °F 16.5 °F 25.0 °F 88% 29.67 in 0.2 mi NNW 15.0 mph - 0.23 in Fog , Snow Heavy Snow
8:15 PM 26.6 °F 17.5 °F 24.8 °F 93% 29.57 in 0.2 mi NNW 9.2 mph - 0.02 in Fog , Snow Snow
8:46 PM 26.6 °F 16.2 °F 24.8 °F 93% 29.57 in 0.2 mi NNW 11.5 mph - 0.12 in Fog , Snow Heavy Snow
8:54 PM 27.0 °F 17.3 °F 24.1 °F 89% 29.68 in 0.2 mi North 10.4 mph - 0.14 in Fog , Snow Heavy Snow
9:20 PM 26.6 °F 17.5 °F 24.8 °F 93% 29.57 in 0.2 mi North 9.2 mph - 0.10 in Fog , Snow Snow
9:47 PM 26.6 °F 14.7 °F 24.8 °F 93% 29.57 in 0.5 mi North 15.0 mph - 0.12 in Fog , Snow Snow
9:54 PM 27.0 °F 15.2 °F 24.1 °F 89% 29.68 in 0.5 mi North 15.0 mph - 0.13 in Fog , Snow Snow
10:09 PM 26.6 °F 15.7 °F 24.8 °F 93% 29.58 in 0.8 mi North 12.7 mph - 0.01 in Snow Light Snow
10:45 PM 26.6 °F 14.3 °F 23.0 °F 86% 29.58 in 0.2 mi NNW 16.1 mph - 0.03 in Fog , Snow Snow
10:54 PM 27.0 °F 14.7 °F 21.9 °F 81% 29.68 in 0.2 mi NNW 16.1 mph - 0.04 in Snow Heavy Snow
11:02 PM 26.6 °F 12.7 °F 21.2 °F 80% 29.57 in 0.5 mi North 20.7 mph - 0.00 in Fog , Snow Snow
11:20 PM 26.6 °F 13.1 °F 21.2 °F 80% 29.57 in 1.0 mi NNW 19.6 mph - 0.00 in Snow Light Snow
11:50 PM 24.8 °F 12.4 °F 19.4 °F 80% 29.58 in 1.2 mi NNW 15.0 mph - 0.01 in Snow Light Snow
11:54 PM 25.0 °F 13.6 °F 19.9 °F 81% 29.69 in 1.2 mi NNW 12.7 mph - 0.01 in Snow Light Snow